Wind_Speed
44 47 43 44 50 45 42 45 43 41 39 34 36 35 35 38 40 39 38 40 42 41 43 46 45 42 46 44 52 51 46 51 49 46 49 53 49 47
50 47 49 48 45 42 47 46 41 40 44 39 40 41 42 44 42 43 44 43 44 45 47 48 46 45 50 48 45 53 56 53 53 53 52 57 55 53
50 52 51 48 47 43 37 41 42 40 45 43 45 45 46 45 42 42 44 47 45 45 50 50 50 52 50 49 44 47 47 54 57 60 59 62 60 59
40 48 48 51 48 40 40 42 44 45 46 48 44 45 45 43 43 43 44 48 52 51 52 47 43 48 51 48 45 49 49 50 58 58 59 61 63 63
41 39 41 44 43 42 42 42 42 44 47 51 49 45 46 46 45 46 46 46 44 45 51 57 48 43 45 43 41 42 56 49 52 52 59 65 65 61
39 39 39 41 38 39 40 40 41 45 45 49 50 49 48 50 50 49 49 46 48 51 51 45 44 45 46 44 44 44 48 56 58 58 62 65 55 58
35 35 34 36 36 37 41 40 43 47 48 49 53 53 53 53 53 49 51 50 52 49 46 47 43 51 50 50 49 46 47 52 59 63 59 56 54 55
38 38 39 40 40 41 44 45 48 51 52 53 54 56 56 56 57 53 52 58 56 55 49 53 53 53 51 51 54 53 54 50 55 58 57 55 52 54
42 44 45 45 45 47 48 49 50 53 56 57 59 59 59 55 54 61 66 57 64 59 57 54 59 51 54 54 52 54 55 52 52 55 54 53 52 52
49 50 51 50 50 51 52 54 54 56 59 61 58 58 58 70 57 63 65 64 67 61 66 56 57 54 52 51 53 52 51 49 48 48 49 50 51 52
54 55 56 58 57 57 57 54 55 55 59 60 61 60 63 67 74 65 63 69 74 71 59 55 57 52 51 51 48 44 42 41 44 47 49 51 53 54
45 49 51 53 53 54 55 58 62 63 67 68 70 73 76 79 71 68 68 74 64 56 53 52 46 43 41 40 38 38 40 44 46 50 51 52 53 54
47 50 54 55 58 53 53 55 61 65 67 71 72 75 77 76 76 65 55 51 45 40 40 40 36 35 35 37 39 42 45 49 51 51 51 52 52 51
44 50 53 58 67 55 58 61 66 67 72 76 73 65 58 45 43 37 31 29 28 29 28 28 31 34 38 42 44 45 47 49 50 50 50 49 48 49
58 57 62 60 65 66 68 68 65 56 52 41 38 36 27 28 25 24 23 24 26 28 31 34 37 40 43 46 47 47 47 45 45 47 47 48 48 47
38 41 41 40 57 35 20 30 24 21 20 20 20 20 20 21 23 25 28 30 32 34 36 38 39 40 41 43 45 47 48 50 50 49 51 50 50 50
21 20 20 15 11 11 14 15 15 17 18 21 22 23 25 28 30 33 35 36 36 37 38 39 41 42 44 46 46 48 50 51 52 52 52 50 49 48
11 14 14 14 15 14 15 18 19 21 23 25 26 28 29 32 33 34 35 35 36 37 38 39 39 40 42 43 46 48 48 49 49 51 51 52 50 46
16 16 17 17 19 20 20 20 22 24 26 29 30 31 31 32 33 34 34 34 34 35 36 38 39 40 39 39 41 42 46 48 49 50 51 51 50 47
18 19 20 22 25 26 27 26 25 25 25 26 28 28 28 29 30 31 32 31 32 33 34 36 36 38 37 39 41 39 37 40 43 46 47 48 47 44
22 23 24 24 25 24 24 24 24 25 25 26 27 28 28 28 29 29 30 30 30 31 31 32 33 34 35 37 38 38 38 37 39 41 42 43 41 38
24 23 23 23 23 23 22 22 23 24 24 24 25 26 27 27 28 29 28 28 28 29 29 30 30 31 31 33 34 35 35 35 33 33 32 35 35 28
21 21 21 21 22 22 22 23 24 25 25 25 25 26 26 27 27 27 27 26 26 26 27 27 28 29 30 32 33 33 33 33 33 30 22 26 28 24
Wind_Direction
234 239 241 252 258 252 240 247 253 258 260 261 262 261 268 274 274 270 271 277 289 291 286 285 286 295 294 289 269 266 263 274 265 270 273 274 277 275
244 244 245 253 261 252 250 252 264 259 263 267 268 271 273 272 273 272 272 276 282 281 283 285 288 286 285 290 283 273 271 272 265 263 266 266 271 271
246 248 256 261 267 269 259 260 271 263 263 271 275 275 274 276 277 274 272 276 276 279 284 281 281 287 291 290 284 274 265 269 267 267 261 264 262 263
254 254 257 261 267 262 263 263 265 268 272 275 275 276 275 277 277 274 278 279 276 278 283 292 288 287 288 281 274 276 279 273 273 269 279 271 271 263
251 253 253 256 257 259 261 262 264 266 270 274 276 274 274 275 275 274 277 279 284 288 286 285 289 285 287 283 274 277 270 277 270 274 273 276 276 267
257 258 258 258 257 259 260 263 266 268 271 275 276 276 275 276 275 277 280 280 282 280 283 290 282 284 280 278 278 276 279 278 273 275 280 277 277 269
256 258 261 262 263 263 265 267 268 271 272 274 276 277 276 277 277 280 277 280 282 279 281 285 289 290 286 280 281 282 286 279 274 272 281 274 273 264
258 259 259 259 260 262 263 264 264 267 266 266 268 269 271 273 277 277 274 279 284 285 281 282 280 284 287 285 282 280 286 280 276 273 280 275 272 264
256 256 257 257 257 257 258 260 261 263 265 267 269 270 275 275 276 276 284 283 281 277 286 278 283 286 285 286 285 284 282 276 273 274 274 274 272 271
257 257 258 257 257 258 259 259 261 263 263 266 269 274 279 269 276 276 279 278 276 273 271 274 283 284 283 278 281 278 275 273 271 271 271 271 273 276
259 261 262 262 261 260 262 265 269 267 269 271 271 272 272 271 267 271 270 274 271 271 269 279 278 278 276 272 271 269 267 267 269 270 272 275 278 281
273 277 275 273 274 273 273 271 271 271 272 272 272 269 269 268 266 269 266 265 268 266 271 277 268 269 264 264 264 264 266 267 267 270 275 278 279 279
272 268 270 265 264 264 265 264 266 268 268 269 268 266 264 264 269 263 261 261 267 265 272 268 268 267 266 267 265 266 268 270 273 276 279 279 278 278
269 267 262 267 262 261 266 265 265 260 267 264 264 261 262 262 263 264 265 266 267 269 268 265 264 265 266 268 270 273 276 278 279 279 278 277 276 274
257 257 266 261 259 260 260 256 260 264 260 254 257 263 262 264 262 264 265 265 267 268 269 271 272 273 275 276 277 277 278 275 275 275 276 277 276 275
268 263 259 263 256 270 266 257 259 257 258 262 261 264 266 270 275 277 279 282 281 281 280 280 280 280 280 281 281 281 281 280 280 277 276 276 275 273
286 285 282 285 291 275 276 286 286 287 287 284 284 282 282 283 283 283 282 283 285 285 285 285 284 284 285 284 284 283 282 282 282 283 281 278 276 274
282 283 284 285 288 285 285 283 281 278 276 278 281 282 284 286 287 286 285 286 288 288 287 286 284 284 285 287 285 285 285 284 283 281 279 278 275 271
296 289 287 283 280 282 280 278 280 282 283 287 292 290 287 285 288 290 289 291 292 291 290 291 290 289 287 284 282 281 284 283 282 280 280 278 276 274
292 290 289 288 287 288 289 291 289 286 287 286 288 289 291 292 293 293 295 295 295 293 294 293 293 293 293 293 292 291 287 285 283 281 279 276 275 273
289 288 289 289 290 290 290 291 290 291 291 295 296 297 297 297 296 295 296 297 297 297 298 298 299 298 300 300 299 301 301 299 296 292 288 282 278 271
293 292 291 292 291 291 292 294 293 294 297 297 298 299 299 299 299 300 300 301 303 303 304 303 301 303 305 304 305 305 305 303 300 296 292 289 285 273
294 294 295 296 297 299 300 298 299 301 302 302 302 301 302 304 304 303 303 305 304 305 306 307 309 312 312 309 308 309 310 308 307 304 293 281 279 272
Height
3097 3099 3101 3104 3105 3106 3106 3107 3108 3106 3105 3109 3110 3114 3114 3114 3114 3114 3112 3112 3112 3110 3108 3107 3105 3102 3100 3097 3095 3093 3092 3091 3091 3090 3089 3088 3085 3084
3089 3090 3093 3095 3096 3097 3098 3099 3099 3099 3094 3100 3101 3103 3103 3103 3104 3103 3101 3102 3101 3099 3097 3094 3092 3090 3087 3085 3082 3080 3079 3077 3076 3074 3075 3073 3072 3071
3081 3082 3084 3086 3087 3088 3090 3091 3091 3090 3085 3089 3090 3091 3090 3090 3090 3091 3090 3089 3087 3087 3085 3083 3080 3076 3073 3070 3068 3066 3065 3065 3063 3061 3060 3059 3057 3056
3072 3074 3076 3078 3078 3081 3081 3081 3082 3082 3078 3075 3081 3079 3078 3079 3079 3077 3077 3076 3075 3074 3073 3069 3066 3063 3059 3056 3054 3052 3050 3050 3050 3048 3046 3044 3042 3041
3063 3064 3066 3068 3068 3070 3071 3071 3071 3072 3069 3066 3065 3068 3066 3065 3066 3064 3064 3063 3062 3061 3059 3055 3052 3050 3046 3042 3040 3038 3038 3036 3035 3032 3031 3029 3028 3028
3054 3056 3057 3057 3058 3060 3061 3061 3061 3060 3059 3055 3053 3054 3054 3053 3052 3053 3050 3051 3049 3048 3044 3041 3038 3036 3033 3029 3027 3024 3024 3022 3021 3019 3018 3015 3015 3014
3045 3046 3047 3047 3049 3050 3049 3050 3050 3048 3047 3044 3041 3040 3040 3039 3038 3041 3035 3037 3032 3030 3026 3024 3023 3022 3019 3015 3013 3012 3009 3006 3005 3005 3004 3002 3001 3000
3036 3037 3038 3038 3039 3040 3040 3040 3038 3034 3033 3032 3030 3027 3026 3027 3024 3025 3024 3017 3016 3012 3010 3009 3007 3005 3002 3000 2998 2995 2993 2990 2990 2990 2990 2988 2987 2986
3026 3026 3026 3027 3028 3028 3028 3026 3024 3022 3020 3020 3015 3014 3012 3014 3013 3003 3005 3004 3000 2998 2993 2991 2990 2989 2986 2983 2981 2980 2977 2976 2976 2976 2974 2974 2973 2972
3013 3013 3012 3013 3013 3013 3013 3011 3011 3008 3006 3005 3003 3000 2998 2993 2994 2994 2990 2987 2981 2979 2976 2974 2973 2973 2971 2969 2968 2965 2964 2963 2963 2962 2962 2961 2960 2958
2999 2997 2997 2997 2998 2998 2997 2996 2995 2992 2989 2987 2986 2985 2983 2981 2979 2976 2973 2971 2969 2963 2958 2959 2959 2957 2956 2954 2952 2951 2951 2950 2950 2950 2949 2947 2945 2942
2983 2983 2982 2981 2981 2982 2982 2980 2979 2977 2974 2970 2969 2969 2964 2962 2959 2957 2954 2952 2946 2942 2942 2944 2943 2942 2942 2940 2940 2940 2938 2937 2936 2935 2934 2932 2929 2926
2972 2969 2965 2966 2967 2967 2967 2966 2963 2959 2955 2952 2948 2946 2941 2941 2939 2931 2932 2929 2930 2928 2924 2928 2929 2930 2931 2930 2930 2929 2928 2925 2922 2921 2919 2917 2914 2912
2957 2954 2950 2948 2944 2946 2950 2950 2947 2942 2938 2932 2926 2923 2922 2920 2921 2922 2923 2920 2920 2920 2916 2917 2919 2918 2918 2918 2918 2916 2913 2911 2907 2906 2903 2901 2899 2897
2938 2936 2935 2932 2929 2926 2926 2924 2923 2920 2919 2910 2911 2909 2913 2910 2912 2915 2914 2913 2912 2911 2911 2910 2909 2908 2907 2906 2904 2903 2900 2899 2895 2891 2887 2884 2884 2883
2917 2915 2909 2914 2910 2914 2910 2907 2910 2911 2913 2914 2910 2910 2907 2908 2908 2907 2907 2906 2904 2902 2901 2899 2897 2895 2892 2890 2887 2886 2884 2881 2878 2878 2875 2871 2868 2867
2912 2914 2909 2913 2907 2906 2907 2906 2906 2907 2907 2909 2908 2903 2901 2900 2898 2898 2897 2896 2894 2892 2890 2887 2884 2881 2875 2873 2873 2871 2867 2865 2861 2857 2856 2854 2852 2852
2907 2911 2909 2906 2910 2903 2901 2902 2901 2900 2898 2898 2896 2897 2891 2891 2890 2887 2886 2883 2880 2879 2877 2877 2874 2868 2861 2860 2856 2854 2852 2849 2846 2842 2838 2835 2835 2836
2908 2909 2906 2902 2903 2900 2897 2894 2896 2894 2891 2889 2889 2886 2883 2881 2881 2878 2876 2871 2866 2867 2864 2862 2860 2856 2849 2848 2848 2843 2837 2833 2829 2825 2823 2820 2818 2821
2905 2904 2900 2896 2897 2893 2893 2888 2886 2887 2883 2880 2881 2878 2874 2871 2871 2870 2865 2861 2856 2856 2851 2851 2846 2845 2837 2834 2829 2829 2826 2821 2814 2810 2806 2804 2802 2803
2900 2896 2893 2891 2889 2889 2885 2881 2879 2877 2876 2872 2870 2870 2867 2864 2863 2861 2856 2850 2846 2844 2841 2840 2834 2835 2825 2821 2818 2812 2809 2806 2800 2793 2791 2789 2788 2789
2892 2889 2888 2885 2883 2881 2879 2874 2872 2869 2865 2864 2862 2860 2861 2857 2853 2851 2846 2841 2835 2833 2831 2830 2828 2822 2814 2810 2807 2802 2797 2795 2790 2785 2781 2776 2775 2776
2886 2883 2880 2877 2875 2873 2869 2866 2864 2861 2857 2855 2853 2853 2850 2848 2845 2841 2837 2832 2828 2825 2823 2823 2819 2810 2803 2803 2798 2794 2788 2782 2779 2778 2775 2767 2770 2768